�N����,����,�~����,�C��,���x,�C��,����,���ϕ���,�ő�u�ԕ���,�ő厞����,���˗�,�I�_���x,�n�����x,�ő啗���N��,DTYPE
"16/06/12","00:10",0.0,23.5,70.1,1007.8,346.9,0.8,2.2,332.4,0.00,17.8,23.3,"00:03:04",1
"16/06/12","00:20",0.0,23.5,70.2,1007.6,336.4,0.7,1.4,0.6,0.00,17.8,23.5,"00:12:40",1
"16/06/12","00:30",0.0,23.5,70.3,1007.6,340.6,0.6,2.2,341.8,0.00,17.8,23.5,"00:20:16",1
"16/06/12","00:40",0.0,23.4,70.5,1007.4,321.8,0.7,1.3,318.2,0.00,17.8,23.7,"00:37:12",1
"16/06/12","00:50",0.0,23.3,71.1,1007.8,323.1,0.3,0.9,298.5,0.00,17.8,23.5,"00:43:04",1
"16/06/12","01:00",0.0,23.2,71.8,1007.8,311.7,0.7,1.7,328.8,0.00,17.9,23.5,"00:53:28",1
"16/06/12","01:10",0.0,23.2,70.4,1007.6,24.0,0.3,1.6,69.4,0.00,17.6,23.5,"01:03:20",1
"16/06/12","01:20",0.0,23.2,69.8,1007.4,7.8,0.6,1.8,38.0,0.00,17.4,23.5,"01:13:44",1
"16/06/12","01:30",0.0,23.0,70.1,1007.4,339.0,0.6,2.5,323.2,0.00,17.3,23.3,"01:22:32",1
"16/06/12","01:40",0.0,22.9,70.5,1007.4,324.0,0.5,1.3,315.7,0.00,17.3,23.2,"01:38:56",1
"16/06/12","01:50",0.0,22.8,70.8,1007.1,311.5,0.3,1.0,318.4,0.00,17.3,23.1,"01:42:00",1
"16/06/12","02:00",0.0,22.8,71.3,1007.6,318.0,0.3,1.2,305.2,0.00,17.4,23.1,"01:54:00",1
"16/06/12","02:10",0.0,22.7,71.1,1007.1,325.0,0.3,1.4,335.0,0.00,17.2,23.1,"02:01:44",1
"16/06/12","02:20",0.0,22.6,71.1,1007.4,329.1,0.5,1.7,325.0,0.00,17.1,23.0,"02:14:40",1
"16/06/12","02:30",0.0,22.6,71.4,1007.1,328.9,1.0,2.8,346.0,0.00,17.2,23.0,"02:21:04",1
"16/06/12","02:40",0.0,22.6,71.5,1006.9,331.8,0.7,1.6,325.4,0.00,17.2,23.0,"02:36:24",1
"16/06/12","02:50",0.0,22.5,72.4,1007.1,309.9,0.8,1.6,326.1,0.00,17.3,23.0,"02:41:04",1
"16/06/12","03:00",0.0,22.4,73.2,1007.1,322.1,0.7,2.1,336.6,0.00,17.4,23.0,"02:57:12",1
"16/06/12","03:10",0.0,22.3,73.3,1007.4,329.7,1.0,1.4,340.2,0.00,17.3,23.0,"03:04:08",1
"16/06/12","03:20",0.0,22.2,75.4,1007.1,322.2,1.1,1.9,329.6,0.00,17.7,22.8,"03:11:28",1
"16/06/12","03:30",0.0,22.0,76.8,1007.1,329.2,1.1,1.3,343.1,0.00,17.8,22.9,"03:20:08",1
"16/06/12","03:40",0.0,21.9,78.0,1007.8,310.9,1.0,1.4,328.7,0.00,17.9,22.8,"03:34:32",1
"16/06/12","03:50",0.0,21.8,78.9,1007.1,314.8,0.7,1.2,317.8,0.00,18.0,22.8,"03:40:32",1
"16/06/12","04:00",0.0,21.7,79.2,1007.1,315.0,0.7,1.4,313.4,0.00,18.0,22.8,"03:57:20",1
"16/06/12","04:10",0.0,21.7,79.8,1007.6,310.0,1.0,1.4,322.7,0.00,18.1,22.7,"04:03:12",1
"16/06/12","04:20",0.0,21.6,79.9,1007.4,310.6,1.0,1.3,310.4,0.00,18.0,22.8,"04:13:44",1
"16/06/12","04:30",0.0,21.6,80.0,1007.1,298.1,0.8,1.4,327.5,0.00,18.0,22.7,"04:20:24",1
"16/06/12","04:40",0.0,21.5,80.0,1007.4,310.5,1.1,1.9,313.6,0.00,17.9,22.6,"04:37:12",1
"16/06/12","04:50",0.0,21.7,80.8,1007.4,310.0,1.1,1.7,324.7,0.00,18.3,22.8,"04:40:32",1
"16/06/12","05:00",0.0,21.8,80.8,1007.4,322.7,1.1,1.7,333.1,0.00,18.4,22.7,"04:54:00",1
"16/06/12","05:10",0.0,21.8,80.6,1007.6,313.3,0.7,1.2,326.9,0.00,18.4,22.6,"05:00:16",1
"16/06/12","05:20",0.0,21.9,80.1,1007.4,282.0,0.7,0.9,264.7,0.01,18.4,22.6,"05:15:36",1
"16/06/12","05:30",0.0,22.1,81.3,1007.4,286.5,0.7,1.0,256.5,0.02,18.8,22.7,"05:20:40",1
"16/06/12","05:40",0.0,22.2,80.6,1007.6,298.1,0.8,1.1,312.3,0.02,18.7,22.6,"05:37:04",1
"16/06/12","05:50",0.0,22.4,80.1,1007.4,322.8,1.0,1.6,332.0,0.03,18.8,22.6,"05:45:36",1
"16/06/12","06:00",0.0,22.6,80.4,1007.1,282.1,0.6,1.0,308.0,0.04,19.1,22.6,"05:51:36",1
"16/06/12","06:10",0.0,22.8,80.1,1007.1,299.7,0.6,1.0,307.7,0.04,19.2,22.5,"06:08:24",1
"16/06/12","06:20",0.0,23.1,77.9,1006.7,309.7,0.5,1.2,333.2,0.06,19.1,22.8,"06:12:08",1
"16/06/12","06:30",0.0,23.5,75.9,1007.1,345.2,0.3,1.8,356.8,0.05,19.0,22.8,"06:29:36",1
"16/06/12","06:40",0.0,23.6,75.3,1006.9,342.4,0.5,1.2,320.1,0.06,19.0,22.5,"06:30:16",1
"16/06/12","06:50",0.0,23.7,74.6,1006.9,327.4,0.5,1.8,356.6,0.05,19.0,23.0,"06:40:24",1
"16/06/12","07:00",0.0,23.7,74.1,1006.7,36.1,0.7,1.6,348.2,0.05,18.9,23.0,"06:59:20",1
"16/06/12","07:10",0.0,23.9,75.1,1006.4,341.6,0.5,1.3,332.0,0.06,19.3,22.8,"07:00:56",1
"16/06/12","07:20",0.0,24.0,73.4,1006.7,55.7,0.6,1.6,101.3,0.08,19.0,22.8,"07:14:32",1
"16/06/12","07:30",0.0,24.0,74.1,1006.2,96.7,0.6,1.2,117.7,0.09,19.1,22.9,"07:20:08",1
"16/06/12","07:40",0.0,24.6,72.4,1006.4,54.1,0.6,1.6,21.5,0.15,19.3,22.9,"07:37:36",1
"16/06/12","07:50",0.0,24.8,71.0,1006.2,4.5,0.6,1.7,357.7,0.16,19.2,23.2,"07:47:04",1
"16/06/12","08:00",0.0,25.1,71.5,1006.2,127.7,0.5,1.7,118.5,0.18,19.6,23.2,"07:58:08",1
"16/06/12","08:10",0.0,25.3,68.0,1005.7,85.8,0.7,1.9,94.4,0.22,19.0,23.4,"08:05:20",1
"16/06/12","08:20",0.0,25.3,69.2,1005.7,121.6,0.6,1.9,157.6,0.19,19.3,23.5,"08:13:28",1
"16/06/12","08:30",0.0,25.0,70.2,1005.7,151.7,0.8,2.2,165.2,0.16,19.2,23.6,"08:28:00",1
"16/06/12","08:40",0.0,24.9,70.6,1006.0,152.8,1.3,2.9,151.6,0.16,19.2,23.6,"08:38:40",1
"16/06/12","08:50",0.0,25.5,67.7,1005.2,154.5,0.8,2.0,88.4,0.22,19.1,23.8,"08:48:24",1
"16/06/12","09:00",0.0,25.9,67.9,1005.5,109.8,0.8,3.3,116.8,0.22,19.6,23.9,"08:59:20",1
"16/06/12","09:10",0.0,26.4,66.0,1005.0,122.6,0.8,2.0,68.4,0.30,19.6,24.2,"09:01:28",1
"16/06/12","09:20",0.0,26.4,66.1,1004.5,122.7,1.2,2.9,126.8,0.31,19.6,24.2,"09:19:20",1
"16/06/12","09:30",0.0,25.9,67.0,1004.5,105.6,1.0,2.6,116.6,0.18,19.3,24.4,"09:27:20",1
"16/06/12","09:40",0.0,25.8,68.3,1005.2,90.2,0.6,1.6,100.7,0.09,19.6,24.5,"09:30:08",1
"16/06/12","09:50",0.0,25.7,68.7,1005.2,39.8,0.8,2.9,356.8,0.11,19.6,24.4,"09:47:44",1
"16/06/12","10:00",0.0,25.8,68.1,1005.2,90.7,1.0,2.7,82.9,0.17,19.5,24.5,"09:50:24",1
"16/06/12","10:10",0.0,26.1,70.0,1005.2,102.1,1.0,2.0,149.4,0.18,20.2,24.5,"10:08:56",1
"16/06/12","10:20",0.0,26.5,66.6,1005.0,80.9,1.1,2.6,104.0,0.24,19.8,24.6,"10:12:24",1
"16/06/12","10:30",0.0,26.3,66.6,1005.0,91.1,1.1,3.9,42.1,0.20,19.6,24.6,"10:28:48",1
"16/06/12","10:40",0.0,26.2,67.6,1004.5,89.2,1.0,1.9,87.9,0.16,19.8,24.7,"10:38:24",1
"16/06/12","10:50",0.0,26.3,68.2,1004.5,115.7,1.1,2.9,59.6,0.20,20.0,24.8,"10:41:28",1
"16/06/12","11:00",0.0,26.5,66.6,1004.1,68.4,1.1,2.7,131.9,0.22,19.8,24.9,"10:51:52",1
"16/06/12","11:10",0.0,26.4,66.7,1003.8,32.4,1.2,3.4,348.2,0.22,19.7,25.0,"11:04:40",1
"16/06/12","11:20",0.0,26.7,66.2,1003.8,20.1,1.0,2.2,7.6,0.21,19.9,25.0,"11:10:08",1
"16/06/12","11:30",0.0,26.6,66.3,1003.8,69.0,0.8,2.2,356.6,0.17,19.8,25.2,"11:28:32",1
"16/06/12","11:40",0.0,26.5,65.7,1003.4,69.3,0.8,2.4,349.7,0.14,19.6,25.2,"11:38:24",1
"16/06/12","11:50",0.0,26.7,66.6,1003.8,53.4,1.2,3.2,68.2,0.17,20.0,25.1,"11:43:04",1
"16/06/12","12:00",0.0,26.8,67.2,1003.1,110.3,1.0,2.8,135.2,0.17,20.2,25.1,"11:58:56",1
"16/06/12","12:10",0.0,26.8,65.1,1002.9,93.6,1.1,3.4,33.5,0.20,19.7,25.1,"12:07:44",1
"16/06/12","12:20",0.0,27.0,65.3,1003.1,88.1,1.0,2.2,64.6,0.17,20.0,25.0,"12:11:44",1
"16/06/12","12:30",0.0,27.0,64.5,1002.6,104.9,1.2,3.3,155.0,0.20,19.8,25.2,"12:22:08",1
"16/06/12","12:40",0.0,27.1,63.8,1002.6,96.1,1.0,2.6,73.5,0.18,19.7,25.1,"12:38:40",1
"16/06/12","12:50",0.0,27.1,65.5,1002.6,83.6,1.0,2.2,72.5,0.18,20.1,25.1,"12:44:48",1
"16/06/12","13:00",0.0,26.7,66.0,1002.6,72.9,1.1,2.7,6.2,0.11,19.9,25.2,"12:57:12",1
"16/06/12","13:10",0.0,26.7,66.3,1002.6,99.8,1.0,3.4,74.8,0.13,19.9,25.2,"13:07:20",1
"16/06/12","13:20",0.0,27.3,65.5,1002.2,97.2,0.8,2.0,113.1,0.19,20.3,25.2,"13:18:32",1
"16/06/12","13:30",0.0,27.1,65.6,1001.9,92.0,1.1,3.1,110.9,0.23,20.1,25.4,"13:28:32",1
"16/06/12","13:40",0.0,27.0,65.7,1001.9,77.7,1.1,3.1,8.0,0.20,20.1,25.4,"13:36:16",1
"16/06/12","13:50",0.0,26.9,66.5,1001.9,55.6,1.2,3.1,84.1,0.17,20.2,25.2,"13:41:04",1
"16/06/12","14:00",0.0,26.7,68.1,1002.2,88.9,1.5,3.9,16.1,0.16,20.4,25.4,"13:51:20",1
"16/06/12","14:10",0.0,26.8,68.0,1001.9,85.7,1.0,2.6,15.7,0.17,20.4,25.3,"14:03:36",1
"16/06/12","14:20",0.0,26.7,67.4,1001.9,84.1,1.1,2.6,61.5,0.15,20.2,25.4,"14:11:20",1
"16/06/12","14:30",0.0,26.5,66.6,1002.2,96.4,1.1,2.9,312.3,0.06,19.8,25.5,"14:26:00",1
"16/06/12","14:40",0.0,26.1,68.0,1001.7,106.7,1.1,3.3,107.4,0.04,19.8,25.3,"14:36:00",1
"16/06/12","14:50",0.0,25.9,69.6,1001.9,85.0,0.8,3.3,60.7,0.03,20.0,25.2,"14:48:48",1
"16/06/12","15:00",0.0,25.8,70.6,1002.2,52.8,0.6,1.8,60.8,0.02,20.1,25.2,"14:51:12",1
"16/06/12","15:10",0.0,25.5,72.0,1002.2,33.7,0.6,1.9,359.2,0.02,20.1,25.1,"15:08:08",1
"16/06/12","15:20",0.0,25.3,72.2,1002.4,67.5,0.5,1.2,43.7,0.01,20.0,24.9,"15:11:04",1
"16/06/12","15:30",0.0,25.2,74.2,1002.2,94.3,0.8,1.9,135.5,0.02,20.3,24.9,"15:25:04",1
"16/06/12","15:40",0.0,24.9,75.7,1001.9,345.5,0.3,1.9,133.7,0.02,20.4,24.8,"15:33:28",1
"16/06/12","15:50",0.2,24.8,77.6,1001.9,359.6,0.6,1.3,351.3,0.03,20.7,24.6,"15:46:40",1
"16/06/12","16:00",0.0,24.5,78.6,1001.9,338.5,0.6,1.7,341.7,0.02,20.6,24.5,"15:50:24",1
"16/06/12","16:10",0.2,24.2,79.4,1001.7,353.6,0.7,1.7,349.0,0.02,20.4,24.5,"16:06:08",1
"16/06/12","16:20",0.4,24.0,81.8,1001.7,10.7,0.6,1.8,332.5,0.02,20.7,24.6,"16:14:08",1
"16/06/12","16:30",0.2,23.8,83.2,1001.7,312.2,0.6,1.4,339.4,0.02,20.8,24.4,"16:22:08",1
"16/06/12","16:40",0.2,23.6,84.1,1001.5,329.8,0.5,1.6,343.9,0.01,20.8,24.4,"16:32:24",1
"16/06/12","16:50",0.0,23.5,84.7,1001.9,11.0,0.5,1.2,325.9,0.01,20.8,24.5,"16:40:48",1
"16/06/12","17:00",0.2,23.4,85.3,1001.7,36.3,0.5,1.0,68.9,0.01,20.8,24.2,"16:55:52",1
"16/06/12","17:10",0.4,23.3,85.9,1001.9,317.2,0.2,1.2,350.0,0.00,20.8,24.3,"17:02:00",1
"16/06/12","17:20",0.2,23.2,86.6,1001.5,19.0,0.3,1.2,110.5,0.00,20.9,24.3,"17:17:12",1
"16/06/12","17:30",0.2,23.0,87.2,1001.2,103.1,0.2,0.9,85.1,0.00,20.8,24.1,"17:25:20",1
"16/06/12","17:40",0.4,22.9,87.6,1001.2,346.7,0.5,1.0,356.0,0.00,20.8,24.1,"17:39:04",1
"16/06/12","17:50",0.2,22.8,87.6,1001.2,338.4,0.3,1.6,30.9,0.00,20.7,23.9,"17:49:28",1
"16/06/12","18:00",0.2,22.8,88.1,1001.5,2.4,0.2,1.2,348.0,0.00,20.8,24.0,"17:50:40",1
"16/06/12","18:10",0.2,22.7,88.4,1001.7,341.1,0.2,0.8,300.2,0.00,20.7,23.9,"18:00:40",1
"16/06/12","18:20",0.0,22.7,88.2,1001.7,40.3,0.3,1.4,104.1,0.00,20.7,24.0,"18:10:24",1
"16/06/12","18:30",0.0,22.6,88.0,1001.7,11.3,0.2,0.9,146.0,0.00,20.6,23.9,"18:21:12",1
"16/06/12","18:40",0.2,22.6,88.2,1001.5,166.9,0.3,1.0,160.9,0.00,20.6,23.8,"18:38:40",1
"16/06/12","18:50",0.0,22.5,88.2,1001.5,354.8,0.3,1.2,350.3,0.00,20.5,23.7,"18:43:12",1
"16/06/12","19:00",0.2,22.4,88.4,1001.2,67.0,0.2,1.0,118.8,0.00,20.4,23.6,"18:53:44",1
"16/06/12","19:10",0.0,22.4,88.9,1001.2,0.7,0.2,1.0,95.4,0.00,20.5,23.7,"19:08:40",1
"16/06/12","19:20",0.2,22.3,89.2,1001.5,82.6,0.2,0.9,25.4,0.00,20.5,23.6,"19:11:28",1
"16/06/12","19:30",0.0,22.2,89.1,1001.0,61.8,0.2,0.9,110.8,0.00,20.4,23.6,"19:22:32",1
"16/06/12","19:40",0.0,22.1,88.8,1001.2,102.5,0.5,1.3,54.5,0.00,20.2,23.4,"19:32:08",1
"16/06/12","19:50",0.2,22.2,88.6,1000.8,51.4,0.3,1.4,117.5,0.00,20.3,23.3,"19:40:56",1
"16/06/12","20:00",0.2,22.1,88.6,1000.5,12.5,0.5,2.4,147.6,0.00,20.2,23.3,"19:55:20",1
"16/06/12","20:10",0.2,22.1,88.9,1000.8,89.3,0.3,1.1,246.3,0.00,20.2,23.2,"20:06:00",1
"16/06/12","20:20",0.2,22.0,89.0,1000.3,36.2,0.5,1.7,77.1,0.00,20.1,23.2,"20:14:32",1
"16/06/12","20:30",0.2,21.9,88.6,1000.3,17.1,0.6,1.9,5.4,0.00,20.0,23.0,"20:23:12",1
"16/06/12","20:40",0.2,21.9,88.6,1000.0,258.3,0.2,0.9,61.9,0.00,20.0,23.0,"20:31:44",1
"16/06/12","20:50",0.0,21.8,89.2,1000.3,234.0,0.3,1.2,126.6,0.00,20.0,23.0,"20:48:56",1
"16/06/12","21:00",0.2,21.7,89.5,1000.3,111.0,0.3,1.2,30.4,0.00,19.9,23.0,"20:52:40",1
"16/06/12","21:10",0.0,21.7,89.6,999.8,357.7,0.6,2.4,177.5,0.00,20.0,23.0,"21:08:48",1
"16/06/12","21:20",0.0,21.8,89.5,999.8,7.8,0.5,1.4,162.6,0.00,20.0,23.0,"21:10:48",1
"16/06/12","21:30",0.2,21.9,89.3,999.6,6.9,0.7,1.9,92.5,0.00,20.1,23.0,"21:27:36",1
"16/06/12","21:40",0.2,21.9,89.0,999.6,100.0,0.8,2.8,45.6,0.00,20.0,22.7,"21:34:56",1
"16/06/12","21:50",0.0,21.9,89.0,999.3,25.4,0.7,1.4,117.1,0.00,20.0,22.7,"21:40:40",1
"16/06/12","22:00",0.0,21.8,89.0,999.3,334.7,0.5,1.3,332.0,0.00,19.9,22.7,"21:55:28",1
"16/06/12","22:10",0.0,21.7,89.2,999.3,53.4,0.5,1.2,354.5,0.00,19.9,22.7,"22:07:52",1
"16/06/12","22:20",0.6,21.7,89.1,999.1,44.8,0.7,3.3,332.5,0.00,19.9,22.7,"22:14:56",1
"16/06/12","22:30",1.0,21.6,89.0,998.9,68.4,0.8,2.0,66.7,0.00,19.7,22.7,"22:28:24",1
"16/06/12","22:40",0.8,21.5,89.3,998.6,53.8,0.7,2.0,8.7,0.00,19.7,22.7,"22:30:40",1
"16/06/12","22:50",1.0,21.3,89.6,998.6,24.7,0.7,1.6,28.0,0.00,19.6,22.7,"22:40:40",1
"16/06/12","23:00",1.2,21.2,89.9,998.6,24.6,0.6,1.4,112.4,0.00,19.5,22.7,"22:55:52",1
"16/06/12","23:10",1.4,21.1,90.4,998.2,19.9,0.3,1.2,17.6,0.00,19.5,22.4,"23:02:16",1
"16/06/12","23:20",1.6,21.0,91.0,998.6,34.0,0.8,2.0,81.9,0.00,19.5,22.4,"23:11:36",1
"16/06/12","23:30",2.0,21.0,91.3,998.2,36.7,1.0,2.4,97.0,0.00,19.6,22.3,"23:29:52",1
"16/06/12","23:40",1.4,20.9,91.3,998.2,78.0,1.1,2.2,141.0,0.00,19.5,22.3,"23:30:24",1
"16/06/12","23:50",1.4,20.8,91.4,997.7,107.3,0.8,3.1,132.4,0.00,19.4,22.2,"23:45:36",1
"16/06/12","24:00",1.6,20.8,91.5,997.2,103.5,1.1,2.5,149.2,0.00,19.4,22.2,"23:51:52",1
